Time,TemperatureF,DewpointF,PressureIn,WindDirection,WindDirectionDegrees,WindSpeedMPH,WindSpeedGustMPH,Humidity,HourlyPrecipIn,Conditions,Clouds,dailyrainin,SolarRadiationWatts/m^2,SoftwareType,DateUTC
2013-01-22 00:00:00,22.9,8.5,30.47,NW,310,1.0,-999.0,60,-99.99,,,0.00,0.0,cwc,2013-01-22 07:00:00,
2013-01-22 00:10:00,22.7,8.3,30.47,NW,311,2.0,-999.0,60,-99.99,,,0.00,0.0,cwc,2013-01-22 07:10:00,
2013-01-22 00:15:00,22.9,8.5,30.47,NW,310,0.0,-999.0,60,-99.99,,,0.00,0.0,cwc,2013-01-22 07:15:00,
2013-01-22 00:20:00,22.7,7.6,30.48,NW,311,0.0,-999.0,58,-99.99,,,0.00,0.0,cwc,2013-01-22 07:20:00,
2013-01-22 00:25:00,22.0,6.9,30.48,NW,311,0.0,-999.0,58,-99.99,,,0.00,0.0,cwc,2013-01-22 07:25:00,
2013-01-22 00:30:00,21.4,6.6,30.47,NW,310,0.0,-999.0,59,-99.99,,,0.00,0.0,cwc,2013-01-22 07:30:00,
2013-01-22 00:35:00,20.8,6.0,30.48,NW,310,0.0,-999.0,59,-99.99,,,0.00,0.0,cwc,2013-01-22 07:35:00,
2013-01-22 00:40:00,20.3,6.3,30.48,NW,311,1.0,-999.0,61,-99.99,,,0.00,0.0,cwc,2013-01-22 07:40:00,
2013-01-22 00:45:00,19.7,6.0,30.48,NW,311,0.0,-999.0,62,-99.99,,,0.00,0.0,cwc,2013-01-22 07:45:00,
2013-01-22 00:50:00,19.2,6.6,30.48,NW,309,5.0,-999.0,65,-99.99,,,0.00,0.0,cwc,2013-01-22 07:50:00,
2013-01-22 00:55:00,19.1,6.5,30.48,NW,311,0.0,-999.0,65,-99.99,,,0.00,0.0,cwc,2013-01-22 07:55:00,
2013-01-22 01:00:00,18.9,7.0,30.48,NW,313,3.0,-999.0,67,-99.99,,,0.00,0.0,cwc,2013-01-22 08:00:00,
2013-01-22 01:05:00,19.5,7.6,30.48,NW,311,0.0,-999.0,67,-99.99,,,0.00,0.0,cwc,2013-01-22 08:05:00,
2013-01-22 01:10:00,19.7,6.4,30.48,NW,312,2.0,-999.0,63,-99.99,,,0.00,0.0,cwc,2013-01-22 08:10:00,
2013-01-22 01:15:00,19.2,5.9,30.48,NW,311,0.0,-999.0,63,-99.99,,,0.00,0.0,cwc,2013-01-22 08:15:00,
2013-01-22 01:20:00,18.8,5.5,30.49,NW,311,0.0,-999.0,63,-99.99,,,0.00,0.0,cwc,2013-01-22 08:20:00,
2013-01-22 01:25:00,18.4,5.8,30.49,NW,311,1.0,-999.0,65,-99.99,,,0.00,0.0,cwc,2013-01-22 08:25:00,
2013-01-22 01:35:00,17.8,5.2,30.49,NW,311,0.0,-999.0,65,-99.99,,,0.00,0.0,cwc,2013-01-22 08:35:00,
2013-01-22 01:40:00,17.3,5.1,30.49,NW,311,0.0,-999.0,66,-99.99,,,0.00,0.0,cwc,2013-01-22 08:40:00,
2013-01-22 01:45:00,16.7,4.8,30.50,NW,312,4.0,-999.0,67,-99.99,,,0.00,0.0,cwc,2013-01-22 08:45:00,
2013-01-22 01:55:00,18.8,7.3,30.49,NNW,340,8.0,-999.0,68,-99.99,,,0.00,0.0,cwc,2013-01-22 08:55:00,
2013-01-22 02:00:00,19.7,7.5,30.50,NNW,340,4.0,-999.0,66,-99.99,,,0.00,0.0,cwc,2013-01-22 09:00:00,
2013-01-22 02:05:00,20.2,7.6,30.49,NNW,341,4.0,-999.0,65,-99.99,,,0.00,0.0,cwc,2013-01-22 09:05:00,
2013-01-22 02:10:00,20.6,7.3,30.49,NNW,345,5.0,-999.0,63,-99.99,,,0.00,0.0,cwc,2013-01-22 09:10:00,
2013-01-22 02:15:00,20.7,7.4,30.49,North,355,2.0,-999.0,63,-99.99,,,0.00,0.0,cwc,2013-01-22 09:15:00,
2013-01-22 02:20:00,20.1,5.3,30.49,North,355,2.0,-999.0,59,-99.99,,,0.00,0.0,cwc,2013-01-22 09:20:00,
2013-01-22 02:25:00,19.0,5.0,30.49,North,355,2.0,-999.0,61,-99.99,,,0.00,0.0,cwc,2013-01-22 09:25:00,
2013-01-22 02:30:00,17.6,4.6,30.49,North,355,0.0,-999.0,64,-99.99,,,0.00,0.0,cwc,2013-01-22 09:30:00,
2013-01-22 02:35:00,16.8,4.6,30.49,North,355,2.0,-999.0,66,-99.99,,,0.00,0.0,cwc,2013-01-22 09:35:00,
2013-01-22 02:40:00,16.1,4.6,30.50,North,355,1.0,-999.0,68,-99.99,,,0.00,0.0,cwc,2013-01-22 09:40:00,
2013-01-22 02:45:00,15.9,4.7,30.50,North,355,1.0,-999.0,69,-99.99,,,0.00,0.0,cwc,2013-01-22 09:45:00,
2013-01-22 02:50:00,15.6,4.4,30.50,North,355,0.0,-999.0,69,-99.99,,,0.00,0.0,cwc,2013-01-22 09:50:00,
2013-01-22 02:55:00,15.2,3.7,30.50,North,355,2.0,-999.0,68,-99.99,,,0.00,0.0,cwc,2013-01-22 09:55:00,
2013-01-22 03:00:00,14.5,3.3,30.50,North,355,0.0,-999.0,69,-99.99,,,0.00,0.0,cwc,2013-01-22 10:00:00,
2013-01-22 03:05:00,14.1,4.4,30.50,North,355,4.0,-999.0,73,-99.99,,,0.00,0.0,cwc,2013-01-22 10:05:00,
2013-01-22 03:10:00,14.7,5.3,30.50,North,355,0.0,-999.0,74,-99.99,,,0.00,0.0,cwc,2013-01-22 10:10:00,
2013-01-22 03:15:00,15.3,4.9,30.50,North,355,3.0,-999.0,71,-99.99,,,0.00,0.0,cwc,2013-01-22 10:15:00,
2013-01-22 03:20:00,15.2,4.0,30.49,North,355,3.0,-999.0,69,-99.99,,,0.00,0.0,cwc,2013-01-22 10:20:00,
2013-01-22 03:25:00,14.4,3.6,30.50,North,355,3.0,-999.0,70,-99.99,,,0.00,0.0,cwc,2013-01-22 10:25:00,
2013-01-22 03:30:00,13.7,3.6,30.50,North,355,2.0,-999.0,72,-99.99,,,0.00,0.0,cwc,2013-01-22 10:30:00,
2013-01-22 03:40:00,13.2,3.5,30.50,North,355,1.0,-999.0,73,-99.99,,,0.00,0.0,cwc,2013-01-22 10:40:00,
2013-01-22 03:45:00,13.1,3.7,30.50,North,355,1.0,-999.0,74,-99.99,,,0.00,0.0,cwc,2013-01-22 10:45:00,
2013-01-22 03:50:00,13.0,3.6,30.50,North,355,1.0,-999.0,74,-99.99,,,0.00,0.0,cwc,2013-01-22 10:50:00,
2013-01-22 03:55:00,12.6,2.9,30.50,North,355,3.0,-999.0,73,-99.99,,,0.00,0.0,cwc,2013-01-22 10:55:00,
2013-01-22 04:00:00,12.3,3.7,30.50,North,355,0.0,-999.0,76,-99.99,,,0.00,0.0,cwc,2013-01-22 11:00:00,
2013-01-22 04:05:00,12.2,3.2,30.50,North,355,0.0,-999.0,75,-99.99,,,0.00,0.0,cwc,2013-01-22 11:05:00,
2013-01-22 04:10:00,11.8,2.4,30.50,North,355,0.0,-999.0,74,-99.99,,,0.00,0.0,cwc,2013-01-22 11:10:00,
2013-01-22 04:15:00,11.6,3.0,30.51,North,355,0.0,-999.0,76,-99.99,,,0.00,0.0,cwc,2013-01-22 11:15:00,
2013-01-22 04:20:00,11.4,2.8,30.50,North,355,1.0,-999.0,76,-99.99,,,0.00,0.0,cwc,2013-01-22 11:20:00,
2013-01-22 04:25:00,11.1,2.5,30.51,North,355,3.0,-999.0,76,-99.99,,,0.00,0.0,cwc,2013-01-22 11:25:00,
2013-01-22 04:30:00,11.1,2.8,30.50,North,355,0.0,-999.0,77,-99.99,,,0.00,0.0,cwc,2013-01-22 11:30:00,
2013-01-22 04:40:00,10.8,2.2,30.50,North,355,0.0,-999.0,76,-99.99,,,0.00,0.0,cwc,2013-01-22 11:40:00,
2013-01-22 04:45:00,10.5,2.2,30.51,North,355,2.0,-999.0,77,-99.99,,,0.00,0.0,cwc,2013-01-22 11:45:00,
2013-01-22 04:55:00,10.0,2.1,30.50,North,355,2.0,-999.0,78,-99.99,,,0.00,0.0,cwc,2013-01-22 11:55:00,
2013-01-22 05:00:00,10.0,2.4,30.51,North,355,0.0,-999.0,79,-99.99,,,0.00,0.0,cwc,2013-01-22 12:00:00,
2013-01-22 05:10:00,9.7,1.8,30.50,North,355,4.0,-999.0,78,-99.99,,,0.00,0.0,cwc,2013-01-22 12:10:00,
2013-01-22 05:15:00,9.7,2.1,30.50,North,355,0.0,-999.0,79,-99.99,,,0.00,0.0,cwc,2013-01-22 12:15:00,
2013-01-22 05:20:00,9.9,2.7,30.50,North,355,0.0,-999.0,80,-99.99,,,0.00,0.0,cwc,2013-01-22 12:20:00,
2013-01-22 05:25:00,9.8,2.2,30.51,North,355,0.0,-999.0,79,-99.99,,,0.00,0.0,cwc,2013-01-22 12:25:00,
2013-01-22 05:30:00,9.6,2.0,30.51,North,355,0.0,-999.0,79,-99.99,,,0.00,0.0,cwc,2013-01-22 12:30:00,
2013-01-22 05:40:00,9.7,2.9,30.51,North,355,0.0,-999.0,81,-99.99,,,0.00,0.0,cwc,2013-01-22 12:40:00,
2013-01-22 05:45:00,10.1,3.3,30.51,North,355,1.0,-999.0,81,-99.99,,,0.00,0.0,cwc,2013-01-22 12:45:00,
2013-01-22 05:55:00,10.3,2.0,30.51,North,355,3.0,-999.0,77,-99.99,,,0.00,0.0,cwc,2013-01-22 12:55:00,
2013-01-22 06:00:00,9.9,2.0,30.51,North,355,0.0,-999.0,78,-99.99,,,0.00,0.0,cwc,2013-01-22 13:00:00,
2013-01-22 06:05:00,9.7,1.4,30.51,North,355,1.0,-999.0,77,-99.99,,,0.00,0.0,cwc,2013-01-22 13:05:00,
2013-01-22 06:15:00,9.8,2.2,30.51,North,355,0.0,-999.0,79,-99.99,,,0.00,0.0,cwc,2013-01-22 13:15:00,
2013-01-22 06:20:00,9.4,1.1,30.52,North,355,0.0,-999.0,77,-99.99,,,0.00,0.0,cwc,2013-01-22 13:20:00,
2013-01-22 06:25:00,9.0,0.7,30.52,North,355,0.0,-999.0,77,-99.99,,,0.00,0.0,cwc,2013-01-22 13:25:00,
2013-01-22 06:30:00,8.6,0.3,30.52,North,355,2.0,-999.0,77,-99.99,,,0.00,0.0,cwc,2013-01-22 13:30:00,
2013-01-22 06:40:00,8.2,1.0,30.52,North,355,0.0,-999.0,80,-99.99,,,0.00,0.0,cwc,2013-01-22 13:40:00,
2013-01-22 06:45:00,8.1,0.9,30.52,North,355,1.0,-999.0,80,-99.99,,,0.00,0.0,cwc,2013-01-22 13:45:00,
2013-01-22 06:55:00,8.3,1.1,30.53,North,355,2.0,-999.0,80,-99.99,,,0.00,0.0,cwc,2013-01-22 13:55:00,
2013-01-22 07:00:00,8.0,0.4,30.53,North,355,0.0,-999.0,79,-99.99,,,0.00,0.0,cwc,2013-01-22 14:00:00,
2013-01-22 07:05:00,8.0,1.5,30.53,North,355,2.0,-999.0,82,-99.99,,,0.00,0.0,cwc,2013-01-22 14:05:00,
2013-01-22 07:10:00,8.1,0.9,30.53,North,355,0.0,-999.0,80,-99.99,,,0.00,0.0,cwc,2013-01-22 14:10:00,
2013-01-22 07:15:00,7.9,0.3,30.53,North,355,3.0,-999.0,79,-99.99,,,0.00,5.0,cwc,2013-01-22 14:15:00,
2013-01-22 07:25:00,8.0,1.5,30.53,North,355,0.0,-999.0,82,-99.99,,,0.00,9.0,cwc,2013-01-22 14:25:00,
2013-01-22 07:30:00,8.0,1.2,30.53,North,355,0.0,-999.0,81,-99.99,,,0.00,11.0,cwc,2013-01-22 14:30:00,
2013-01-22 07:40:00,7.8,1.0,30.53,North,355,0.0,-999.0,81,-99.99,,,0.00,32.0,cwc,2013-01-22 14:40:00,
2013-01-22 07:45:00,8.1,2.0,30.53,North,355,0.0,-999.0,83,-99.99,,,0.00,47.0,cwc,2013-01-22 14:45:00,
2013-01-22 07:50:00,8.7,2.2,30.53,North,355,0.0,-999.0,82,-99.99,,,0.00,70.0,cwc,2013-01-22 14:50:00,
2013-01-22 07:55:00,9.0,2.2,30.53,North,355,1.0,-999.0,81,-99.99,,,0.00,90.0,cwc,2013-01-22 14:55:00,
2013-01-22 08:00:00,9.4,2.6,30.53,North,355,1.0,-999.0,81,-99.99,,,0.00,105.0,cwc,2013-01-22 15:00:00,
2013-01-22 08:05:00,9.9,3.1,30.53,North,355,2.0,-999.0,81,-99.99,,,0.00,125.0,cwc,2013-01-22 15:05:00,
2013-01-22 08:10:00,10.4,3.6,30.53,North,355,0.0,-999.0,81,-99.99,,,0.00,142.0,cwc,2013-01-22 15:10:00,
2013-01-22 08:15:00,11.2,4.4,30.53,North,355,2.0,-999.0,81,-99.99,,,0.00,158.0,cwc,2013-01-22 15:15:00,
2013-01-22 08:20:00,12.1,4.9,30.53,North,355,1.0,-999.0,80,-99.99,,,0.00,178.0,cwc,2013-01-22 15:20:00,
2013-01-22 08:25:00,13.2,5.3,30.53,North,355,0.0,-999.0,78,-99.99,,,0.00,193.0,cwc,2013-01-22 15:25:00,
2013-01-22 08:30:00,14.5,5.5,30.53,North,360,6.0,-999.0,75,-99.99,,,0.00,213.0,cwc,2013-01-22 15:30:00,
2013-01-22 08:35:00,16.2,6.1,30.53,North,360,2.0,-999.0,72,-99.99,,,0.00,236.0,cwc,2013-01-22 15:35:00,
2013-01-22 08:40:00,17.6,6.1,30.53,North,360,4.0,-999.0,68,-99.99,,,0.00,253.0,cwc,2013-01-22 15:40:00,
2013-01-22 08:45:00,18.6,6.7,30.53,North,9,3.0,-999.0,67,-99.99,,,0.00,272.0,cwc,2013-01-22 15:45:00,
2013-01-22 08:55:00,20.4,6.7,30.54,North,5,2.0,-999.0,62,-99.99,,,0.00,299.0,cwc,2013-01-22 15:55:00,
2013-01-22 09:00:00,21.3,7.3,30.54,North,360,2.0,-999.0,61,-99.99,,,0.00,301.0,cwc,2013-01-22 16:00:00,
2013-01-22 09:05:00,22.0,7.2,30.54,North,360,3.0,-999.0,59,-99.99,,,0.00,315.0,cwc,2013-01-22 16:05:00,
2013-01-22 09:10:00,22.5,7.0,30.54,North,9,2.0,-999.0,57,-99.99,,,0.00,330.0,cwc,2013-01-22 16:10:00,
2013-01-22 09:15:00,23.0,7.2,30.53,North,360,2.0,-999.0,56,-99.99,,,0.00,345.0,cwc,2013-01-22 16:15:00,
2013-01-22 09:20:00,23.5,7.7,30.54,NNE,15,1.0,-999.0,56,-99.99,,,0.00,359.0,cwc,2013-01-22 16:20:00,
2013-01-22 09:25:00,24.0,7.8,30.53,NNE,14,4.0,-999.0,55,-99.99,,,0.00,367.0,cwc,2013-01-22 16:25:00,
2013-01-22 09:30:00,24.4,7.8,30.53,NNE,13,0.0,-999.0,54,-99.99,,,0.00,385.0,cwc,2013-01-22 16:30:00,
2013-01-22 09:35:00,24.8,8.6,30.53,NNE,13,0.0,-999.0,55,-99.99,,,0.00,397.0,cwc,2013-01-22 16:35:00,
2013-01-22 09:40:00,25.7,8.8,30.53,NNE,14,3.0,-999.0,53,-99.99,,,0.00,411.0,cwc,2013-01-22 16:40:00,
2013-01-22 09:45:00,26.3,8.7,30.53,NNE,13,0.0,-999.0,51,-99.99,,,0.00,422.0,cwc,2013-01-22 16:45:00,
2013-01-22 09:50:00,26.9,9.3,30.53,NNE,12,4.0,-999.0,51,-99.99,,,0.00,434.0,cwc,2013-01-22 16:50:00,
2013-01-22 09:55:00,27.5,9.5,30.53,North,10,2.0,-999.0,50,-99.99,,,0.00,446.0,cwc,2013-01-22 16:55:00,
2013-01-22 10:00:00,27.8,9.4,30.52,North,10,0.0,-999.0,49,-99.99,,,0.00,455.0,cwc,2013-01-22 17:00:00,
2013-01-22 10:05:00,28.3,9.6,30.52,North,10,1.0,-999.0,48,-99.99,,,0.00,466.0,cwc,2013-01-22 17:05:00,
2013-01-22 10:10:00,28.8,10.1,30.52,North,10,2.0,-999.0,48,-99.99,,,0.00,478.0,cwc,2013-01-22 17:10:00,
2013-01-22 10:15:00,29.5,10.1,30.52,NNE,12,2.0,-999.0,46,-99.99,,,0.00,489.0,cwc,2013-01-22 17:15:00,
2013-01-22 10:20:00,30.1,10.7,30.51,North,360,1.0,-999.0,46,-99.99,,,0.00,497.0,cwc,2013-01-22 17:20:00,
2013-01-22 10:25:00,30.7,10.9,30.51,North,5,0.0,-999.0,45,-99.99,,,0.00,508.0,cwc,2013-01-22 17:25:00,
2013-01-22 10:30:00,31.4,11.2,30.51,North,5,3.0,-999.0,44,-99.99,,,0.00,515.0,cwc,2013-01-22 17:30:00,
2013-01-22 10:40:00,32.4,11.9,30.50,North,5,0.0,-999.0,43,-99.99,,,0.00,533.0,cwc,2013-01-22 17:40:00,
2013-01-22 10:45:00,33.4,12.5,30.50,North,5,0.0,-999.0,42,-99.99,,,0.00,543.0,cwc,2013-01-22 17:45:00,
2013-01-22 10:50:00,34.3,12.7,30.50,North,5,0.0,-999.0,40,-99.99,,,0.00,550.0,cwc,2013-01-22 17:50:00,
2013-01-22 10:55:00,35.1,13.5,30.49,North,360,1.0,-999.0,40,-99.99,,,0.00,559.0,cwc,2013-01-22 17:55:00,
2013-01-22 11:00:00,36.0,13.3,30.49,North,5,3.0,-999.0,37,-99.99,,,0.00,566.0,cwc,2013-01-22 18:00:00,
2013-01-22 11:05:00,36.4,13.7,30.49,North,5,3.0,-999.0,37,-99.99,,,0.00,570.0,cwc,2013-01-22 18:05:00,
2013-01-22 11:10:00,36.9,14.2,30.49,North,5,3.0,-999.0,37,-99.99,,,0.00,578.0,cwc,2013-01-22 18:10:00,
2013-01-22 11:15:00,37.2,14.2,30.48,North,360,0.0,-999.0,36,-99.99,,,0.00,584.0,cwc,2013-01-22 18:15:00,
2013-01-22 11:20:00,37.7,13.9,30.48,North,9,3.0,-999.0,34,-99.99,,,0.00,589.0,cwc,2013-01-22 18:20:00,
2013-01-22 11:25:00,38.2,14.4,30.48,NE,43,2.0,-999.0,34,-99.99,,,0.00,591.0,cwc,2013-01-22 18:25:00,
2013-01-22 11:30:00,38.8,14.7,30.48,NE,39,7.0,-999.0,33,-99.99,,,0.00,596.0,cwc,2013-01-22 18:30:00,
2013-01-22 11:35:00,39.5,15.7,30.47,NE,49,2.0,-999.0,34,-99.99,,,0.00,599.0,cwc,2013-01-22 18:35:00,
2013-01-22 11:40:00,40.0,15.9,30.46,NNE,22,7.0,-999.0,33,-99.99,,,0.00,603.0,cwc,2013-01-22 18:40:00,
2013-01-22 11:45:00,40.4,16.3,30.46,NE,38,5.0,-999.0,33,-99.99,,,0.00,606.0,cwc,2013-01-22 18:45:00,
2013-01-22 11:50:00,40.9,16.4,30.45,NE,40,3.0,-999.0,32,-99.99,,,0.00,608.0,cwc,2013-01-22 18:50:00,
2013-01-22 11:55:00,41.6,17.1,30.45,NE,40,3.0,-999.0,32,-99.99,,,0.00,612.0,cwc,2013-01-22 18:55:00,
2013-01-22 12:00:00,42.4,17.6,30.45,NNE,24,3.0,-999.0,31,-99.99,,,0.00,613.0,cwc,2013-01-22 19:00:00,
2013-01-22 12:05:00,43.0,17.4,30.44,ENE,64,7.0,-999.0,29,-99.99,,,0.00,615.0,cwc,2013-01-22 19:05:00,
2013-01-22 12:10:00,43.3,17.4,30.43,ENE,58,4.0,-999.0,28,-99.99,,,0.00,615.0,cwc,2013-01-22 19:10:00,
2013-01-22 12:15:00,43.6,17.7,30.43,ENE,64,4.0,-999.0,28,-99.99,,,0.00,615.0,cwc,2013-01-22 19:15:00,
2013-01-22 12:20:00,44.2,18.6,30.42,NE,47,4.0,-999.0,29,-99.99,,,0.00,615.0,cwc,2013-01-22 19:20:00,
2013-01-22 12:25:00,44.6,19.0,30.42,NNE,28,3.0,-999.0,29,-99.99,,,0.00,615.0,cwc,2013-01-22 19:25:00,
2013-01-22 12:30:00,45.3,19.4,30.42,NNE,32,2.0,-999.0,28,-99.99,,,0.00,613.0,cwc,2013-01-22 19:30:00,
2013-01-22 12:35:00,45.8,19.5,30.41,NE,55,5.0,-999.0,27,-99.99,,,0.00,613.0,cwc,2013-01-22 19:35:00,
2013-01-22 12:40:00,46.1,19.8,30.41,ENE,59,4.0,-999.0,27,-99.99,,,0.00,612.0,cwc,2013-01-22 19:40:00,
2013-01-22 12:45:00,46.7,20.4,30.41,ENE,59,2.0,-999.0,27,-99.99,,,0.00,612.0,cwc,2013-01-22 19:45:00,
2013-01-22 12:55:00,47.8,21.2,30.40,ENE,59,4.0,-999.0,26,-99.99,,,0.00,608.0,cwc,2013-01-22 19:55:00,
2013-01-22 13:00:00,48.4,21.8,30.40,ENE,65,9.0,-999.0,26,-99.99,,,0.00,601.0,cwc,2013-01-22 20:00:00,
2013-01-22 13:05:00,48.6,22.0,30.39,NNE,29,3.0,-999.0,26,-99.99,,,0.00,601.0,cwc,2013-01-22 20:05:00,
2013-01-22 13:10:00,48.7,22.1,30.40,ENE,61,7.0,-999.0,26,-99.99,,,0.00,592.0,cwc,2013-01-22 20:10:00,
2013-01-22 13:15:00,48.8,21.8,30.39,NE,48,8.0,-999.0,25,-99.99,,,0.00,587.0,cwc,2013-01-22 20:15:00,
2013-01-22 13:20:00,48.8,21.8,30.39,NE,40,5.0,-999.0,25,-99.99,,,0.00,582.0,cwc,2013-01-22 20:20:00,
2013-01-22 13:25:00,49.1,22.1,30.39,NE,51,6.0,-999.0,25,-99.99,,,0.00,577.0,cwc,2013-01-22 20:25:00,
2013-01-22 13:30:00,49.5,22.5,30.39,NE,49,2.0,-999.0,25,-99.99,,,0.00,571.0,cwc,2013-01-22 20:30:00,
2013-01-22 13:35:00,49.9,22.5,30.38,NE,45,3.0,-999.0,24,-99.99,,,0.00,564.0,cwc,2013-01-22 20:35:00,
2013-01-22 13:40:00,50.2,22.8,30.38,NE,43,4.0,-999.0,24,-99.99,,,0.00,555.0,cwc,2013-01-22 20:40:00,
2013-01-22 13:45:00,50.5,23.1,30.38,NNE,33,4.0,-999.0,24,-99.99,,,0.00,550.0,cwc,2013-01-22 20:45:00,
2013-01-22 13:50:00,50.6,22.9,30.38,NNE,32,6.0,-999.0,23,-99.99,,,0.00,541.0,cwc,2013-01-22 20:50:00,
2013-01-22 14:00:00,50.7,23.0,30.38,NE,48,2.0,-999.0,23,-99.99,,,0.00,527.0,cwc,2013-01-22 21:00:00,
2013-01-22 14:10:00,50.9,23.2,30.37,ENE,59,3.0,-999.0,23,-99.99,,,0.00,508.0,cwc,2013-01-22 21:10:00,
2013-01-22 14:15:00,51.0,22.9,30.37,ENE,58,5.0,-999.0,22,-99.99,,,0.00,501.0,cwc,2013-01-22 21:15:00,
2013-01-22 14:20:00,51.1,22.7,30.37,NNE,26,3.0,-999.0,21,-99.99,,,0.00,489.0,cwc,2013-01-22 21:20:00,
2013-01-22 14:25:00,51.2,22.8,30.36,NNE,26,2.0,-999.0,21,-99.99,,,0.00,475.0,cwc,2013-01-22 21:25:00,
2013-01-22 14:30:00,51.5,23.1,30.36,NNE,26,3.0,-999.0,21,-99.99,,,0.00,468.0,cwc,2013-01-22 21:30:00,
2013-01-22 14:35:00,51.7,23.6,30.36,NNE,32,3.0,-999.0,22,-99.99,,,0.00,455.0,cwc,2013-01-22 21:35:00,
2013-01-22 14:40:00,52.1,23.7,30.35,NNE,32,1.0,-999.0,21,-99.99,,,0.00,445.0,cwc,2013-01-22 21:40:00,
2013-01-22 14:45:00,52.4,24.0,30.35,NNE,32,4.0,-999.0,21,-99.99,,,0.00,434.0,cwc,2013-01-22 21:45:00,
2013-01-22 14:50:00,52.7,23.9,30.35,NNE,32,1.0,-999.0,20,-99.99,,,0.00,422.0,cwc,2013-01-22 21:50:00,
2013-01-22 14:55:00,52.9,24.1,30.35,NNE,32,3.0,-999.0,20,-99.99,,,0.00,410.0,cwc,2013-01-22 21:55:00,
2013-01-22 15:00:00,53.1,24.3,30.35,NNE,32,2.0,-999.0,20,-99.99,,,0.00,396.0,cwc,2013-01-22 22:00:00,
2013-01-22 15:05:00,53.2,24.4,30.35,NNE,33,2.0,-999.0,20,-99.99,,,0.00,383.0,cwc,2013-01-22 22:05:00,
2013-01-22 15:10:00,53.3,24.5,30.35,NE,34,6.0,-999.0,20,-99.99,,,0.00,371.0,cwc,2013-01-22 22:10:00,
2013-01-22 15:15:00,53.4,24.6,30.35,NE,36,4.0,-999.0,20,-99.99,,,0.00,357.0,cwc,2013-01-22 22:15:00,
2013-01-22 15:20:00,53.3,24.5,30.35,NE,38,1.0,-999.0,20,-99.99,,,0.00,341.0,cwc,2013-01-22 22:20:00,
2013-01-22 15:25:00,53.3,24.5,30.35,NE,46,4.0,-999.0,20,-99.99,,,0.00,332.0,cwc,2013-01-22 22:25:00,
2013-01-22 15:30:00,53.2,24.8,30.35,NE,42,2.0,-999.0,21,-99.99,,,0.00,309.0,cwc,2013-01-22 22:30:00,
2013-01-22 15:35:00,53.0,24.6,30.35,NE,49,5.0,-999.0,21,-99.99,,,0.00,301.0,cwc,2013-01-22 22:35:00,
2013-01-22 15:40:00,52.9,24.5,30.35,NE,48,5.0,-999.0,21,-99.99,,,0.00,274.0,cwc,2013-01-22 22:40:00,
2013-01-22 15:45:00,52.6,24.2,30.36,NE,44,4.0,-999.0,21,-99.99,,,0.00,262.0,cwc,2013-01-22 22:45:00,
2013-01-22 15:50:00,52.4,24.0,30.36,NE,43,1.0,-999.0,21,-99.99,,,0.00,234.0,cwc,2013-01-22 22:50:00,
2013-01-22 15:55:00,52.2,23.8,30.36,NE,44,3.0,-999.0,21,-99.99,,,0.00,216.0,cwc,2013-01-22 22:55:00,
2013-01-22 16:00:00,52.0,23.6,30.35,NE,38,4.0,-999.0,21,-99.99,,,0.00,193.0,cwc,2013-01-22 23:00:00,
2013-01-22 16:05:00,52.0,23.6,30.35,NNE,32,1.0,-999.0,21,-99.99,,,0.00,176.0,cwc,2013-01-22 23:05:00,
2013-01-22 16:15:00,51.9,23.5,30.35,NNE,31,1.0,-999.0,21,-99.99,,,0.00,135.0,cwc,2013-01-22 23:15:00,
2013-01-22 16:20:00,51.7,23.3,30.35,NNE,31,3.0,-999.0,21,-99.99,,,0.00,30.0,cwc,2013-01-22 23:20:00,
2013-01-22 16:25:00,51.2,23.1,30.35,NNE,28,4.0,-999.0,22,-99.99,,,0.00,18.0,cwc,2013-01-22 23:25:00,
2013-01-22 16:30:00,50.5,22.4,30.35,NNE,25,4.0,-999.0,22,-99.99,,,0.00,16.0,cwc,2013-01-22 23:30:00,
2013-01-22 16:35:00,50.0,22.3,30.35,NNE,22,5.0,-999.0,23,-99.99,,,0.00,16.0,cwc,2013-01-22 23:35:00,
2013-01-22 16:40:00,49.7,22.3,30.35,North,9,5.0,-999.0,24,-99.99,,,0.00,14.0,cwc,2013-01-22 23:40:00,
2013-01-22 16:45:00,49.4,22.4,30.36,NNE,19,6.0,-999.0,25,-99.99,,,0.00,14.0,cwc,2013-01-22 23:45:00,
2013-01-22 16:50:00,49.0,22.4,30.36,North,360,3.0,-999.0,26,-99.99,,,0.00,12.0,cwc,2013-01-22 23:50:00,
2013-01-22 16:55:00,48.7,22.4,30.36,North,360,2.0,-999.0,27,-99.99,,,0.00,12.0,cwc,2013-01-22 23:55:00,
2013-01-22 17:00:00,48.4,22.1,30.36,NW,325,4.0,-999.0,27,-99.99,,,0.00,11.0,cwc,2013-01-23 00:00:00,
2013-01-22 17:05:00,48.1,22.2,30.36,NW,323,3.0,-999.0,28,-99.99,,,0.00,9.0,cwc,2013-01-23 00:05:00,
2013-01-22 17:10:00,47.8,21.9,30.36,NW,323,0.0,-999.0,28,-99.99,,,0.00,7.0,cwc,2013-01-23 00:10:00,
2013-01-22 17:15:00,46.9,21.3,30.36,NW,323,4.0,-999.0,29,-99.99,,,0.00,5.0,cwc,2013-01-23 00:15:00,
2013-01-22 17:20:00,45.8,20.6,30.37,NW,322,1.0,-999.0,30,-99.99,,,0.00,0.0,cwc,2013-01-23 00:20:00,
2013-01-22 17:25:00,44.5,20.0,30.37,West,263,1.0,-999.0,32,-99.99,,,0.00,0.0,cwc,2013-01-23 00:25:00,
2013-01-22 17:30:00,43.5,19.0,30.37,NW,322,2.0,-999.0,32,-99.99,,,0.00,0.0,cwc,2013-01-23 00:30:00,
2013-01-22 17:40:00,43.4,19.3,30.38,NW,321,3.0,-999.0,33,-99.99,,,0.00,0.0,cwc,2013-01-23 00:40:00,
2013-01-22 17:45:00,43.3,19.2,30.38,NNW,334,6.0,-999.0,33,-99.99,,,0.00,0.0,cwc,2013-01-23 00:45:00,
2013-01-22 17:50:00,43.2,19.4,30.38,NNW,336,2.0,-999.0,34,-99.99,,,0.00,0.0,cwc,2013-01-23 00:50:00,
2013-01-22 17:55:00,42.9,19.1,30.38,NNW,336,1.0,-999.0,34,-99.99,,,0.00,0.0,cwc,2013-01-23 00:55:00,
2013-01-22 18:00:00,42.6,18.8,30.39,North,355,1.0,-999.0,34,-99.99,,,0.00,0.0,cwc,2013-01-23 01:00:00,
2013-01-22 18:05:00,42.3,18.5,30.39,North,355,1.0,-999.0,34,-99.99,,,0.00,0.0,cwc,2013-01-23 01:05:00,
2013-01-22 18:10:00,41.9,18.1,30.39,North,5,5.0,-999.0,34,-99.99,,,0.00,0.0,cwc,2013-01-23 01:10:00,
2013-01-22 18:15:00,41.6,17.8,30.39,NNE,15,2.0,-999.0,34,-99.99,,,0.00,0.0,cwc,2013-01-23 01:15:00,
2013-01-22 18:20:00,41.2,17.4,30.40,NNE,13,1.0,-999.0,34,-99.99,,,0.00,0.0,cwc,2013-01-23 01:20:00,
2013-01-22 18:25:00,40.9,17.5,30.40,NNE,12,2.0,-999.0,35,-99.99,,,0.00,0.0,cwc,2013-01-23 01:25:00,
2013-01-22 18:30:00,40.4,17.4,30.40,North,11,6.0,-999.0,36,-99.99,,,0.00,0.0,cwc,2013-01-23 01:30:00,
2013-01-22 18:35:00,40.1,17.1,30.40,North,360,7.0,-999.0,36,-99.99,,,0.00,0.0,cwc,2013-01-23 01:35:00,
2013-01-22 18:40:00,39.7,16.3,30.40,North,355,3.0,-999.0,35,-99.99,,,0.00,0.0,cwc,2013-01-23 01:40:00,
2013-01-22 18:45:00,39.6,16.6,30.40,NNW,339,3.0,-999.0,36,-99.99,,,0.00,0.0,cwc,2013-01-23 01:45:00,
2013-01-22 18:50:00,38.8,16.1,30.40,NNW,339,2.0,-999.0,37,-99.99,,,0.00,0.0,cwc,2013-01-23 01:50:00,
2013-01-22 18:55:00,37.6,15.3,30.41,NNW,339,0.0,-999.0,38,-99.99,,,0.00,0.0,cwc,2013-01-23 01:55:00,
2013-01-22 19:00:00,36.7,14.7,30.41,NNW,339,0.0,-999.0,39,-99.99,,,0.00,0.0,cwc,2013-01-23 02:00:00,
2013-01-22 19:05:00,36.1,14.5,30.41,NNW,339,0.0,-999.0,40,-99.99,,,0.00,0.0,cwc,2013-01-23 02:05:00,
2013-01-22 19:10:00,35.6,14.0,30.41,NNW,338,2.0,-999.0,40,-99.99,,,0.00,0.0,cwc,2013-01-23 02:10:00,
2013-01-22 19:15:00,35.0,14.1,30.41,NNW,337,0.0,-999.0,42,-99.99,,,0.00,0.0,cwc,2013-01-23 02:15:00,
2013-01-22 19:20:00,34.8,13.9,30.42,NW,306,5.0,-999.0,42,-99.99,,,0.00,0.0,cwc,2013-01-23 02:20:00,
2013-01-22 19:25:00,35.3,14.8,30.42,NW,307,1.0,-999.0,43,-99.99,,,0.00,0.0,cwc,2013-01-23 02:25:00,
2013-01-22 19:30:00,34.9,14.4,30.42,NW,307,0.0,-999.0,43,-99.99,,,0.00,0.0,cwc,2013-01-23 02:30:00,
2013-01-22 19:35:00,34.1,13.9,30.42,NW,307,0.0,-999.0,44,-99.99,,,0.00,0.0,cwc,2013-01-23 02:35:00,
2013-01-22 19:40:00,33.1,13.3,30.42,NW,307,1.0,-999.0,45,-99.99,,,0.00,0.0,cwc,2013-01-23 02:40:00,
2013-01-22 19:45:00,32.4,13.3,30.42,NW,306,1.0,-999.0,47,-99.99,,,0.00,0.0,cwc,2013-01-23 02:45:00,
2013-01-22 19:50:00,31.9,13.2,30.42,NW,307,0.0,-999.0,48,-99.99,,,0.00,0.0,cwc,2013-01-23 02:50:00,
2013-01-22 19:55:00,31.1,12.7,30.42,NW,307,2.0,-999.0,49,-99.99,,,0.00,0.0,cwc,2013-01-23 02:55:00,
2013-01-22 20:00:00,30.3,12.3,30.42,NW,307,0.0,-999.0,50,-99.99,,,0.00,0.0,cwc,2013-01-23 03:00:00,
2013-01-22 20:05:00,29.7,12.1,30.43,NW,307,1.0,-999.0,51,-99.99,,,0.00,0.0,cwc,2013-01-23 03:05:00,
2013-01-22 20:10:00,29.1,12.5,30.43,NW,307,2.0,-999.0,54,-99.99,,,0.00,0.0,cwc,2013-01-23 03:10:00,
2013-01-22 20:15:00,28.7,12.1,30.43,NW,307,0.0,-999.0,54,-99.99,,,0.00,0.0,cwc,2013-01-23 03:15:00,
2013-01-22 20:20:00,28.4,12.2,30.44,NW,307,0.0,-999.0,55,-99.99,,,0.00,0.0,cwc,2013-01-23 03:20:00,
2013-01-22 20:25:00,28.1,11.9,30.44,NW,307,0.0,-999.0,55,-99.99,,,0.00,0.0,cwc,2013-01-23 03:25:00,
2013-01-22 20:30:00,27.6,11.8,30.44,NW,308,4.0,-999.0,56,-99.99,,,0.00,0.0,cwc,2013-01-23 03:30:00,
2013-01-22 20:35:00,27.5,12.0,30.44,NW,310,5.0,-999.0,57,-99.99,,,0.00,0.0,cwc,2013-01-23 03:35:00,
2013-01-22 20:45:00,28.8,12.2,30.45,NW,306,0.0,-999.0,54,-99.99,,,0.00,0.0,cwc,2013-01-23 03:45:00,
2013-01-22 20:50:00,28.6,12.0,30.45,NW,306,0.0,-999.0,54,-99.99,,,0.00,0.0,cwc,2013-01-23 03:50:00,
2013-01-22 20:55:00,28.3,12.1,30.45,NW,306,2.0,-999.0,55,-99.99,,,0.00,0.0,cwc,2013-01-23 03:55:00,
2013-01-22 21:00:00,28.2,12.0,30.45,NW,306,0.0,-999.0,55,-99.99,,,0.00,0.0,cwc,2013-01-23 04:00:00,
2013-01-22 21:05:00,28.5,12.3,30.45,NW,306,3.0,-999.0,55,-99.99,,,0.00,0.0,cwc,2013-01-23 04:05:00,
2013-01-22 21:10:00,29.2,12.6,30.45,NW,306,1.0,-999.0,54,-99.99,,,0.00,0.0,cwc,2013-01-23 04:10:00,
2013-01-22 21:15:00,29.7,12.8,30.46,NW,306,0.0,-999.0,53,-99.99,,,0.00,0.0,cwc,2013-01-23 04:15:00,
2013-01-22 21:20:00,29.3,12.0,30.46,NW,306,0.0,-999.0,52,-99.99,,,0.00,0.0,cwc,2013-01-23 04:20:00,
2013-01-22 21:25:00,28.4,11.5,30.46,NW,306,3.0,-999.0,53,-99.99,,,0.00,0.0,cwc,2013-01-23 04:25:00,
2013-01-22 21:30:00,27.6,11.4,30.46,NW,306,0.0,-999.0,55,-99.99,,,0.00,0.0,cwc,2013-01-23 04:30:00,
2013-01-22 21:35:00,27.0,11.2,30.46,NW,306,0.0,-999.0,56,-99.99,,,0.00,0.0,cwc,2013-01-23 04:35:00,
2013-01-22 21:40:00,27.0,11.5,30.46,NW,307,1.0,-999.0,57,-99.99,,,0.00,0.0,cwc,2013-01-23 04:40:00,
2013-01-22 21:45:00,27.3,11.8,30.46,NW,307,3.0,-999.0,57,-99.99,,,0.00,0.0,cwc,2013-01-23 04:45:00,
2013-01-22 21:50:00,27.9,12.1,30.46,NW,307,0.0,-999.0,56,-99.99,,,0.00,0.0,cwc,2013-01-23 04:50:00,
2013-01-22 21:55:00,28.1,11.9,30.47,NW,307,2.0,-999.0,55,-99.99,,,0.00,0.0,cwc,2013-01-23 04:55:00,
2013-01-22 22:05:00,27.5,10.9,30.47,NW,307,0.0,-999.0,54,-99.99,,,0.00,0.0,cwc,2013-01-23 05:05:00,
2013-01-22 22:10:00,27.0,10.8,30.47,NW,307,4.0,-999.0,55,-99.99,,,0.00,0.0,cwc,2013-01-23 05:10:00,
2013-01-22 22:15:00,26.6,11.1,30.47,NW,307,1.0,-999.0,57,-99.99,,,0.00,0.0,cwc,2013-01-23 05:15:00,
2013-01-22 22:20:00,26.3,10.8,30.47,NW,307,0.0,-999.0,57,-99.99,,,0.00,0.0,cwc,2013-01-23 05:20:00,
2013-01-22 22:25:00,26.1,10.6,30.47,NW,307,3.0,-999.0,57,-99.99,,,0.00,0.0,cwc,2013-01-23 05:25:00,
2013-01-22 22:35:00,25.1,10.3,30.48,NW,308,6.0,-999.0,59,-99.99,,,0.00,0.0,cwc,2013-01-23 05:35:00,
2013-01-22 22:40:00,25.1,10.7,30.48,NW,309,1.0,-999.0,60,-99.99,,,0.00,0.0,cwc,2013-01-23 05:40:00,
2013-01-22 22:45:00,25.3,10.9,30.48,NNW,344,7.0,-999.0,60,-99.99,,,0.00,0.0,cwc,2013-01-23 05:45:00,
2013-01-22 22:50:00,25.7,10.9,30.48,North,351,4.0,-999.0,59,-99.99,,,0.00,0.0,cwc,2013-01-23 05:50:00,
2013-01-22 22:55:00,25.7,10.6,30.49,North,355,4.0,-999.0,58,-99.99,,,0.00,0.0,cwc,2013-01-23 05:55:00,
2013-01-22 23:00:00,25.7,10.6,30.48,North,355,1.0,-999.0,58,-99.99,,,0.00,0.0,cwc,2013-01-23 06:00:00,
2013-01-22 23:05:00,25.9,11.1,30.48,North,351,2.0,-999.0,59,-99.99,,,0.00,0.0,cwc,2013-01-23 06:05:00,
2013-01-22 23:10:00,26.2,11.1,30.48,NNW,339,6.0,-999.0,58,-99.99,,,0.00,0.0,cwc,2013-01-23 06:10:00,
2013-01-22 23:15:00,26.5,11.4,30.48,NW,323,7.0,-999.0,58,-99.99,,,0.00,0.0,cwc,2013-01-23 06:15:00,
2013-01-22 23:20:00,26.6,11.1,30.48,NW,325,1.0,-999.0,57,-99.99,,,0.00,0.0,cwc,2013-01-23 06:20:00,
2013-01-22 23:25:00,26.2,10.4,30.48,NW,325,3.0,-999.0,56,-99.99,,,0.00,0.0,cwc,2013-01-23 06:25:00,
2013-01-22 23:30:00,25.3,9.1,30.48,NW,325,1.0,-999.0,55,-99.99,,,0.00,0.0,cwc,2013-01-23 06:30:00,
2013-01-22 23:35:00,24.0,8.5,30.48,NW,325,2.0,-999.0,57,-99.99,,,0.00,0.0,cwc,2013-01-23 06:35:00,
2013-01-22 23:40:00,23.3,8.9,30.49,NW,325,2.0,-999.0,60,-99.99,,,0.00,0.0,cwc,2013-01-23 06:40:00,
2013-01-22 23:45:00,22.9,8.1,30.48,NW,325,1.0,-999.0,59,-99.99,,,0.00,0.0,cwc,2013-01-23 06:45:00,
2013-01-22 23:50:00,22.3,7.5,30.48,NW,325,0.0,-999.0,59,-99.99,,,0.00,0.0,cwc,2013-01-23 06:50:00,
2013-01-22 23:55:00,21.8,7.8,30.48,NW,325,0.0,-999.0,61,-99.99,,,0.00,0.0,cwc,2013-01-23 06:55:00,